FW2321 Weather Reports


Display with metric or nautical units.
time (UTC)temp
F
wind
direction
speed
MPH
gust
MPH
rain 1hr
in
rain 24hr
in
rain mn
in
humidity
%
barometer
mb
20210619000534 85 0 2.0 6.0 0.00 0.79 0.77 51 1007.9
20210619000203 85 286 1.0 7.0 0.00 0.79 0.77 51 1008.0
20210618235538 85 246 2.0 7.0 0.00 0.79 0.77 54 1008.0
20210618235037 84 266 2.0 5.0 0.00 0.79 0.77 53 1007.9
20210618234634 85 241 2.0 6.0 0.00 0.79 0.77 53 1008.0
20210618234038 86 199 3.0 6.0 0.00 0.79 0.77 52 1007.9
20210618233535 86 255 2.0 6.0 0.00 0.79 0.77 50 1007.8
20210618233102 86 267 1.0 8.0 0.00 0.79 0.77 51 1007.8
20210618232537 86 291 3.0 10.0 0.00 0.79 0.77 49 1007.8
20210618232046 86 271 3.0 10.0 0.00 0.79 0.77 48 1007.8
20210618231620 86 294 2.0 10.0 0.00 0.79 0.77 49 1007.9
20210618231037 87 320 4.0 9.0 0.00 0.79 0.77 48 1007.7
20210618230537 87 283 4.0 9.0 0.00 0.79 0.77 46 1007.7
20210618230114 87 296 3.0 8.0 0.00 0.79 0.77 47 1007.7
20210618225542 87 305 3.0 10.0 0.00 0.79 0.77 45 1007.6
20210618225037 87 0 4.0 11.0 0.00 0.79 0.77 46 1007.7
20210618224627 87 316 6.0 11.0 0.00 0.79 0.77 46 1007.6
20210618224045 87 16 5.0 11.0 0.00 0.79 0.77 46 1007.6
20210618223546 87 279 4.0 11.0 0.00 0.79 0.77 47 1007.6
20210618223107 87 269 4.0 13.0 0.00 0.79 0.77 46 1007.6
20210618222534 87 279 6.0 13.0 0.00 0.79 0.77 46 1007.7
20210618222036 87 273 4.0 12.0 0.00 0.79 0.77 45 1007.7
20210618221630 87 338 4.0 15.0 0.00 0.79 0.77 44 1007.6
20210618221036 87 296 7.0 15.0 0.00 0.79 0.77 48 1007.7
20210618220556 87 271 8.0 14.0 0.00 0.79 0.77 45 1007.7
20210618220215 88 303 7.0 11.0 0.00 0.79 0.77 46 1007.7
20210618215547 88 281 6.0 11.0 0.00 0.79 0.77 45 1007.8
20210618215035 88 303 5.0 9.0 0.00 0.79 0.77 48 1007.8
20210618214623 88 306 2.0 11.0 0.00 0.79 0.77 49 1007.7
20210618214036 87 293 4.0 13.0 0.00 0.79 0.77 46 1007.6
20210618213546 87 298 6.0 13.0 0.00 0.79 0.77 44 1007.8
20210618213142 87 286 6.0 12.0 0.00 0.79 0.77 44 1007.8
20210618212536 87 19 4.0 11.0 0.00 0.79 0.77 48 1007.8
20210618212036 87 320 5.0 11.0 0.00 0.79 0.77 47 1007.8
20210618211555 87 270 3.0 13.0 0.00 0.79 0.77 48 1007.9
20210618211037 87 242 6.0 13.0 0.00 0.79 0.77 45 1007.9
20210618210543 87 288 2.0 10.0 0.00 0.79 0.77 48 1008.0
20210618210103 87 296 3.0 14.0 0.00 0.79 0.77 49 1008.0
20210618205553 87 311 7.0 14.0 0.00 0.79 0.77 45 1008.1
20210618205110 87 327 6.0 12.0 0.00 0.79 0.77 45 1008.1
20210618204649 87 291 6.0 11.0 0.00 0.79 0.77 47 1008.3
20210618204050 87 287 6.0 12.0 0.00 0.79 0.77 47 1008.3
20210618203540 87 287 6.0 12.0 0.00 0.79 0.77 46 1008.2
20210618203113 88 307 5.0 10.0 0.00 0.79 0.77 44 1008.1
20210618202535 87 327 3.0 12.0 0.00 0.79 0.77 45 1008.1
20210618202042 87 308 5.0 12.0 0.00 0.79 0.77 43 1008.1
20210618201624 87 321 4.0 13.0 0.00 0.79 0.77 45 1008.2
20210618201108 87 277 6.0 13.0 0.00 0.79 0.77 44 1008.1
20210618200539 88 301 4.0 9.0 0.00 0.79 0.77 49 1008.1
20210618200051 87 246 3.0 9.0 0.00 0.79 0.77 48 1008.2
20210618195535 87 15 3.0 9.0 0.00 0.79 0.77 46 1008.1
20210618195038 87 314 3.0 9.0 0.00 0.79 0.77 50 1008.0
20210618194642 86 309 4.0 10.0 0.00 0.79 0.77 45 1007.9
20210618194036 86 308 5.0 11.0 0.00 0.79 0.77 47 1007.7
20210618193537 86 290 4.0 11.0 0.00 0.79 0.77 47 1007.8
20210618193115 86 283 3.0 8.0 0.00 0.79 0.77 49 1007.8
20210618192542 86 288 4.0 8.0 0.00 0.79 0.77 51 1007.9
20210618192051 86 296 3.0 9.0 0.00 0.79 0.77 50 1007.9
20210618191647 85 5 3.0 11.0 0.00 0.79 0.77 52 1008.0
20210618191041 85 306 3.0 11.0 0.00 0.79 0.77 54 1007.9
20210618190535 85 338 2.0 12.0 0.00 0.79 0.77 54 1007.8
20210618190143 85 292 5.0 12.0 0.00 0.79 0.77 54 1007.8
20210618185539 85 298 4.0 9.0 0.00 0.79 0.77 56 1007.9
20210618185037 84 313 2.0 10.0 0.00 0.79 0.77 59 1008.0
20210618184715 84 323 5.0 10.0 0.00 0.79 0.77 59 1007.8
20210618184037 84 322 3.0 10.0 0.00 0.79 0.77 56 1007.8
20210618183543 84 28 3.0 10.0 0.00 0.79 0.77 61 1007.8
20210618183048 84 334 4.0 9.0 0.00 0.79 0.77 61 1007.8
20210618182534 84 313 2.0 7.0 0.00 0.79 0.77 65 1007.9
20210618182037 84 302 3.0 10.0 0.00 0.79 0.77 62 1008.0
20210618181607 83 314 5.0 10.0 0.00 0.79 0.77 61 1008.2
20210618181040 83 281 3.0 7.0 0.00 0.79 0.77 62 1008.3
20210618180603 83 294 1.0 8.0 0.00 0.79 0.77 69 1008.2
20210618180058 83 324 4.0 9.0 0.00 0.79 0.77 66 1008.3
20210618175537 82 281 4.0 9.0 0.00 0.79 0.77 63 1008.2
20210618175038 82 350 3.0 9.0 0.00 0.79 0.77 68 1008.3
20210618174557 82 303 3.0 9.0 0.00 0.79 0.77 68 1008.2
20210618174038 82 286 2.0 8.0 0.00 0.79 0.77 71 1008.1
20210618173536 81 307 4.0 8.0 0.00 0.79 0.77 69 1008.2
20210618173117 81 325 4.0 8.0 0.00 0.79 0.77 70 1008.2
20210618172535 81 252 2.0 9.0 0.00 0.79 0.77 74 1008.1
20210618172043 80 344 3.0 9.0 0.00 0.79 0.77 72 1008.0
20210618171613 80 286 3.0 8.0 0.00 0.79 0.77 74 1008.0
20210618171038 80 340 4.0 11.0 0.00 0.79 0.77 74 1008.0
20210618170536 80 289 5.0 11.0 0.00 0.79 0.77 70 1008.2
20210618170136 79 289 3.0 10.0 0.00 0.79 0.77 75 1008.2
20210618165554 80 328 4.0 10.0 0.00 0.79 0.77 76 1008.3
20210618165036 79 325 4.0 12.0 0.00 0.79 0.77 77 1008.1
20210618164714 79 307 4.0 12.0 0.00 0.79 0.77 77 1008.1
20210618164056 79 296 5.0 12.0 0.00 0.79 0.77 80 1008.0
20210618163536 79 355 4.0 11.0 0.00 0.79 0.77 79 1008.1
20210618163131 79 338 6.0 11.0 0.00 0.79 0.77 80 1008.1
20210618162540 78 345 5.0 14.0 0.00 0.79 0.77 81 1008.0
20210618162036 78 318 6.0 14.0 0.00 0.79 0.77 79 1008.0
20210618161609 78 21 4.0 11.0 0.00 0.79 0.77 80 1008.0
20210618161036 78 288 5.0 12.0 0.00 0.79 0.77 79 1008.0
20210618160537 79 355 6.0 14.0 0.00 0.79 0.77 80 1007.8
20210618160053 79 355 6.0 14.0 0.00 0.79 0.77 81 1007.8
20210618155536 79 360 4.0 11.0 0.00 0.79 0.77 81 1007.8
20210618155035 78 355 6.0 11.0 0.00 0.79 0.77 80 1007.8
20210618154639 78 322 5.0 11.0 0.00 0.79 0.77 80 1007.8
20210618154037 78 258 4.0 11.0 0.00 0.79 0.77 79 1007.9
20210618153535 78 286 5.0 11.0 0.00 0.79 0.77 79 1008.0
20210618153230 78 256 5.0 11.0 0.00 0.79 0.77 79 1008.0
20210618152548 78 264 3.0 9.0 0.00 0.79 0.77 81 1007.9
20210618152051 77 202 3.0 12.0 0.00 0.79 0.77 80 1007.9
20210618151734 77 290 3.0 12.0 0.00 0.79 0.77 82 1007.9
20210618151041 77 257 3.0 10.0 0.00 0.79 0.77 81 1007.9
20210618150536 77 281 4.0 11.0 0.00 0.79 0.77 81 1007.8
20210618150204 76 257 3.0 13.0 0.00 0.79 0.77 81 1007.9
20210618145537 76 247 4.0 13.0 0.00 0.79 0.77 83 1007.9
20210618145035 76 327 4.0 13.0 0.00 0.79 0.77 81 1007.8
20210618144659 76 286 5.0 12.0 0.00 0.79 0.77 82 1007.8
20210618144046 76 284 6.0 12.0 0.00 0.79 0.77 82 1007.8
20210618143538 76 326 3.0 12.0 0.00 0.79 0.77 84 1007.8
20210618143108 75 289 6.0 13.0 0.00 0.79 0.77 84 1007.8
20210618142537 75 323 4.0 13.0 0.00 0.79 0.77 85 1007.8
20210618142036 75 307 5.0 12.0 0.00 0.79 0.77 86 1007.9
20210618141558 74 313 3.0 10.0 0.00 0.79 0.77 87 1008.1
20210618141036 74 300 4.0 13.0 0.00 0.79 0.77 86 1008.0
20210618140536 74 241 5.0 13.0 0.00 0.79 0.77 86 1007.9
20210618140107 74 269 4.0 11.0 0.00 0.79 0.77 88 1007.9
20210618135536 73 298 5.0 13.0 0.00 0.79 0.77 88 1008.0
20210618135034 73 295 6.0 13.0 0.00 0.79 0.77 88 1007.9
20210618134607 73 267 4.0 15.0 0.00 0.79 0.77 91 1007.8
20210618134049 72 263 3.0 15.0 0.00 0.79 0.77 92 1007.9
20210618133544 71 301 3.0 11.0 0.00 0.79 0.77 92 1008.0
20210618133130 71 279 4.0 10.0 0.00 0.79 0.77 93 1007.9
20210618132538 70 234 3.0 10.0 0.00 0.79 0.77 93 1007.9
20210618132037 70 278 4.0 10.0 0.00 0.79 0.77 93 1007.9
20210618131638 70 285 2.0 8.0 0.00 0.79 0.77 94 1007.9
20210618131042 69 305 1.0 7.0 0.00 0.79 0.77 95 1007.8
20210618130551 69 207 2.0 6.0 0.00 0.79 0.77 95 1007.8
20210618130129 68 213 2.0 6.0 0.00 0.79 0.77 95 1007.8
20210618125533 68 215 2.0 4.0 0.00 0.79 0.77 96 1007.8
20210618125036 68 232 2.0 4.0 0.01 0.79 0.77 96 1007.7
20210618124653 68 236 1.0 4.0 0.01 0.79 0.77 97 1007.7
20210618124039 67 258 0.0 3.0 0.01 0.79 0.77 97 1007.5
20210618123536 67 242 0.0 3.0 0.01 0.79 0.77 97 1007.5
20210618123152 67 242 2.0 3.0 0.01 0.79 0.77 97 1007.5
20210618122537 67 0 0.0 3.0 0.01 0.79 0.77 97 1007.4
20210618122040 66 0 0.0 3.0 0.01 0.79 0.77 97 1007.3
20210618121636 66 0 0.0 2.0 0.01 0.79 0.77 97 1007.2
20210618121036 66 0 0.0 3.0 0.01 0.79 0.77 97 1007.2
20210618120536 66 0 1.0 3.0 0.01 0.79 0.77 97 1007.0
20210618120155 66 346 1.0 3.0 0.01 0.79 0.77 97 1007.0
20210618115535 65 0 0.0 3.0 0.01 0.79 0.77 97 1007.1
20210618115040 65 0 0.0 4.0 0.00 0.78 0.76 96 1007.1
20210618114632 65 0 1.0 4.0 0.00 0.78 0.76 96 1007.3
20210618114035 65 355 1.0 3.0 0.00 0.78 0.76 96 1007.1
20210618113545 65 12 0.0 2.0 0.00 0.78 0.76 96 1007.1
20210618113115 65 0 0.0 3.0 0.00 0.78 0.76 96 1007.3
20210618112553 65 0 0.0 3.0 0.00 0.78 0.76 96 1007.1
20210618112037 65 13 0.0 2.0 0.00 0.78 0.76 96 1006.9
20210618111601 65 0 0.0 2.0 0.00 0.78 0.76 95 1007.0
20210618111039 65 0 0.0 2.0 0.00 0.78 0.76 95 1006.8
20210618110534 65 13 0.0 5.0 0.00 0.78 0.76 95 1006.7
20210618110118 65 0 2.0 5.0 0.00 0.78 0.76 95 1006.8
20210618105536 65 336 2.0 4.0 0.00 0.78 0.76 95 1006.6
20210618105038 65 209 0.0 2.0 0.00 0.78 0.76 94 1006.2
20210618104617 65 209 0.0 2.0 0.00 0.78 0.76 94 1006.2
20210618104038 65 0 0.0 4.0 0.00 0.78 0.76 93 1006.5
20210618103537 66 279 2.0 10.0 0.05 0.78 0.76 93 1006.6
20210618103128 66 0 1.0 10.0 0.09 0.78 0.76 93 1006.1
20210618102606 66 46 5.0 10.0 0.16 0.78 0.76 93 1006.1
20210618102037 66 43 6.0 10.0 0.38 0.78 0.76 93 1005.7
20210618101552 66 54 1.0 18.0 0.38 0.78 0.76 92 1006.3
20210618101038 66 221 7.0 19.0 0.39 0.78 0.76 93 1006.2
20210618100539 65 187 11.0 19.0 0.40 0.78 0.76 93 1005.2
20210618100058 65 175 9.0 18.0 0.40 0.78 0.76 94 1005.6
20210618095537 66 161 7.0 18.0 0.41 0.78 0.76 94 1006.6
20210618095040 66 198 9.0 18.0 0.41 0.78 0.76 95 1006.5
20210618094717 66 197 8.0 15.0 0.42 0.78 0.76 95 1007.5
20210618094035 66 196 5.0 15.0 0.41 0.77 0.75 95 1007.7
20210618093546 66 171 7.0 12.0 0.45 0.73 0.71 96 1010.0
20210618093054 66 196 3.0 12.0 0.58 0.68 0.66 96 1011.0
20210618092536 66 346 5.0 12.0 0.50 0.60 0.58 96 1012.4
20210618092047 66 183 5.0 11.0 0.31 0.40 0.38 96 1011.7
20210618091626 66 214 6.0 12.0 0.33 0.40 0.38 96 1009.1
20210618091034 66 42 3.0 12.0 0.34 0.39 0.37 96 1009.3
20210618090545 67 107 2.0 6.0 0.35 0.38 0.36 96 1010.4
20210618090122 67 169 2.0 7.0 0.35 0.38 0.36 96 1010.6
20210618085555 67 121 1.0 7.0 0.34 0.37 0.35 96 1010.8
20210618085040 67 96 2.0 11.0 0.35 0.37 0.35 95 1010.6
20210618084627 67 63 3.0 11.0 0.34 0.36 0.34 95 1010.6
20210618084035 67 107 2.0 12.0 0.34 0.36 0.34 95 1012.1
20210618083535 67 65 6.0 21.0 0.24 0.26 0.24 95 1013.0
20210618083107 67 342 10.0 21.0 0.08 0.10 0.08 95 1013.1
20210618082535 67 355 11.0 18.0 0.08 0.10 0.08 94 1011.3
20210618082035 67 47 9.0 17.0 0.07 0.09 0.07 93 1010.8
20210618081610 67 21 9.0 18.0 0.04 0.06 0.04 93 1011.6
20210618081059 67 36 9.0 18.0 0.03 0.05 0.03 92 1011.2
20210618080537 68 34 10.0 22.0 0.01 0.03 0.01 91 1010.0
20210618080107 68 49 12.0 22.0 0.01 0.03 0.01 89 1009.4
20210618075553 69 59 11.0 21.0 0.01 0.03 0.01 86 1009.9
20210618075038 69 54 12.0 21.0 0.00 0.02 0.00 84 1009.5
20210618074650 70 57 10.0 16.0 0.00 0.02 0.00 82 1009.4
20210618074044 71 44 12.0 18.0 0.00 0.02 0.00 81 1009.4
20210618073535 72 31 12.0 18.0 0.00 0.02 0.00 78 1009.2
20210618073054 74 25 9.0 15.0 0.00 0.02 0.00 76 1008.6
20210618072535 74 51 5.0 12.0 0.00 0.02 0.00 74 1008.0
20210618072035 75 59 4.0 10.0 0.00 0.02 0.00 73 1007.7
20210618071746 75 52 3.0 7.0 0.00 0.02 0.00 72 1007.4
20210618071700 75 52 3.0 7.0 0.00 0.02 0.00 72 1007.4
20210618071035 75 66 2.0 7.0 0.00 0.02 0.00 71 1006.9
20210618070541 75 98 1.0 7.0 0.00 0.02 0.00 71 1007.5
20210618070054 75 103 2.0 5.0 0.00 0.02 0.00 71 1007.4
20210618065537 75 96 1.0 5.0 0.00 0.02 0.00 71 1007.8
20210618065048 75 99 2.0 5.0 0.00 0.02 0.00 71 1007.6
20210618064546 75 67 2.0 7.0 0.00 0.02 0.00 70 1007.6
20210618064035 76 69 2.0 7.0 0.00 0.02 0.00 70 1007.7
20210618063535 76 74 1.0 6.0 0.00 0.02 0.00 69 1007.7
20210618063138 76 98 1.0 7.0 0.00 0.02 0.00 69 1007.6
20210618062541 75 115 2.0 7.0 0.00 0.02 0.00 70 1007.3
20210618062041 75 0 1.0 7.0 0.00 0.02 0.00 69 1007.4
20210618061638 76 114 3.0 7.0 0.00 0.02 0.00 69 1007.2
20210618061035 76 106 2.0 7.0 0.00 0.02 0.00 68 1007.6
20210618060533 76 107 2.0 6.0 0.00 0.02 0.00 68 1007.8
20210618060111 77 84 1.0 4.0 0.00 0.02 0.00 67 1008.1
20210618055534 77 58 1.0 4.0 0.00 0.02 0.00 67 1008.1
20210618055033 77 45 2.0 4.0 0.00 0.02 0.00 66 1008.2
20210618054600 78 173 1.0 3.0 0.00 0.02 0.00 65 1008.0
20210618054123 78 173 0.0 6.0 0.00 0.02 0.00 64 1007.9
20210618053535 78 173 1.0 11.0 0.00 0.02 0.00 64 1007.8
20210618053115 78 185 3.0 11.0 0.00 0.02 0.00 64 1007.7
20210618052542 78 209 3.0 9.0 0.00 0.02 0.00 64 1007.5
20210618052040 78 186 4.0 10.0 0.00 0.02 0.00 63 1007.7
20210618051629 78 173 4.0 10.0 0.00 0.02 0.00 63 1007.2
20210618051035 78 182 4.0 8.0 0.00 0.02 0.00 63 1007.6
20210618050551 78 202 4.0 8.0 0.00 0.02 0.00 63 1007.5
20210618050105 77 166 3.0 9.0 0.00 0.02 0.00 63 1007.7
20210618045543 78 195 4.0 9.0 0.00 0.02 0.02 63 1007.8
20210618045035 78 180 3.0 9.0 0.00 0.02 0.02 63 1007.5
20210618044620 78 200 4.0 12.0 0.00 0.02 0.02 63 1007.5
20210618044034 78 171 4.0 12.0 0.00 0.02 0.02 62 1007.5
20210618043533 78 174 5.0 14.0 0.00 0.02 0.02 61 1007.5
20210618043116 78 168 6.0 14.0 0.00 0.02 0.02 61 1007.5
20210618042545 78 176 7.0 12.0 0.00 0.02 0.02 61 1007.4
20210618042040 78 186 5.0 13.0 0.00 0.02 0.02 62 1007.2
20210618041540 78 175 6.0 13.0 0.00 0.02 0.02 62 1007.2
20210618041035 77 184 6.0 10.0 0.00 0.02 0.02 63 1007.3
20210618040535 77 196 4.0 10.0 0.00 0.02 0.02 63 1007.4
20210618040206 77 175 5.0 11.0 0.00 0.02 0.02 63 1007.3
20210618035536 77 188 6.0 11.0 0.00 0.02 0.02 63 1007.4
20210618035037 77 169 6.0 11.0 0.00 0.02 0.02 64 1007.6
20210618034622 77 161 3.0 6.0 0.00 0.02 0.02 63 1007.9
20210618034037 77 184 2.0 6.0 0.00 0.02 0.02 64 1008.4
20210618033536 77 185 3.0 6.0 0.00 0.02 0.02 64 1008.2
20210618033117 77 207 3.0 6.0 0.00 0.02 0.02 64 1008.3
20210618032540 77 173 3.0 7.0 0.00 0.02 0.02 64 1008.2
20210618032041 77 222 2.0 7.0 0.00 0.02 0.02 65 1008.5
20210618031601 77 200 3.0 8.0 0.00 0.02 0.02 64 1008.2
20210618031037 76 209 4.0 8.0 0.00 0.02 0.02 65 1008.3
20210618030540 76 193 3.0 10.0 0.00 0.02 0.02 65 1008.1
20210618030056 76 185 3.0 10.0 0.00 0.02 0.02 66 1008.0
20210618025534 76 171 4.0 9.0 0.00 0.02 0.02 65 1008.1
20210618025034 76 207 4.0 11.0 0.00 0.02 0.02 66 1008.1
20210618024657 77 173 5.0 11.0 0.00 0.02 0.02 66 1008.3
20210618024036 77 177 4.0 10.0 0.00 0.02 0.02 65 1008.3
20210618023536 77 179 4.0 10.0 0.00 0.02 0.02 65 1008.3
20210618023054 77 173 5.0 11.0 0.00 0.02 0.02 64 1008.5
20210618022535 78 172 3.0 11.0 0.00 0.02 0.02 64 1008.5
20210618022040 78 186 4.0 11.0 0.00 0.02 0.02 63 1008.3
20210618021544 78 177 5.0 11.0 0.00 0.02 0.02 64 1008.5
20210618021035 78 171 6.0 11.0 0.00 0.02 0.02 64 1008.4
20210618020547 77 223 5.0 12.0 0.00 0.02 0.02 66 1008.6
20210618020122 77 194 6.0 12.0 0.01 0.02 0.02 66 1008.7
20210618015533 78 184 6.0 13.0 0.01 0.02 0.02 66 1009.0
20210618015036 77 167 5.0 13.0 0.01 0.02 0.02 66 1009.1
20210618014625 77 221 5.0 13.0 0.01 0.02 0.02 66 1008.9
20210618014043 77 213 6.0 16.0 0.02 0.02 0.02 67 1009.0
20210618013555 77 211 9.0 16.0 0.02 0.02 0.02 67 1009.1
20210618013101 77 196 8.0 17.0 0.02 0.02 0.02 69 1009.1
20210618012542 76 178 10.0 17.0 0.02 0.02 0.02 71 1009.1
20210618012050 75 196 7.0 14.0 0.02 0.02 0.02 74 1009.1
20210618011619 73 190 7.0 14.0 0.02 0.02 0.02 78 1009.3
20210618011033 72 179 4.0 8.0 0.02 0.02 0.02 83 1009.9
20210618010542 72 205 1.0 4.0 0.01 0.01 0.01 81 1010.6
20210618010115 73 202 2.0 4.0 0.01 0.01 0.01 81 1010.6
20210618005550 74 185 2.0 4.0 0.01 0.01 0.01 78 1010.5
20210618005040 74 188 2.0 4.0 0.01 0.01 0.01 79 1011.0
20210618004631 75 210 2.0 4.0 0.01 0.01 0.01 75 1011.5
20210618004042 77 212 2.0 6.0 0.00 0.00 0.00 72 1011.9
20210618003537 79 214 2.0 6.0 0.00 0.00 0.00 64 1011.9
20210618003201 79 208 2.0 5.0 0.00 0.00 0.00 60 1012.1
20210618002534 80 223 1.0 4.0 0.00 0.00 0.00 59 1012.4
20210618002046 81 225 1.0 4.0 0.00 0.00 0.00 56 1012.4
20210618001614 81 225 1.0 4.0 0.00 0.00 0.00 55 1012.5
20210618001037 81 229 1.0 4.0 0.00 0.00 0.00 54 1012.3